Location: Silverdale
(47.6506°N, 122.6941°W)
Time: 21:07:14
(UTC+00:00)

Tiros 1 despin weight - Pass Details

Date: 08 October 2022
Orbit: 590 x 637 km, 48.2° (Epoch: 05 December)

Event Time Altitude Azimuth Distance (km) Brightness Sun altitude
Rises 01:57:19 0° 280° (W) 2,858 ? -4.1°
Reaches altitude 10° 01:59:36 10° 280° (W) 1,962 ? -4.5°
Maximum altitude 02:04:07 87° 196° (SSW) 622 ? -5.3°
Drops below altitude 10° 02:08:43 10° 103° (ESE) 1,991 ? -6.0°
Enters shadow 02:09:26 - 103° (ESE) 2,273 ? -6.2°
